Location: Cruquius
(52.3348°N, 4.6319°E)
Time: 23:16:55
(UTC+00:00)

NOSS 3-3 (C) - Pass Details

Date: 05 October 2021
Orbit: 801 x 1411 km, 63.4° (Epoch: 05 October)

Event Time Altitude Azimuth Distance (km) Brightness Sun altitude
Rises 19:55:03 0° 307° (NW) 4,076 8.6 -25.5°
Reaches altitude 10° 19:59:09 10° 285° (WNW) 3,227 7.7 -26.0°
Maximum altitude 20:03:06 15° 255° (WSW) 2,963 7.0 -26.6°
Drops below altitude 10° 20:07:13 10° 225° (SW) 3,400 7.0 -27.1°
Sets 20:11:47 0° 204° (SSW) 4,434 7.4 -27.7°
